Retour au catalogue

STARLINK-3261

ActifCommunicationsVLEO
NORAD 50193·PAYLOAD·🇺🇸 United States

Lancé Dec 18, 2021 depuis Vandenberg Space Force Base

Loading…

Prochains Passages (prochaines 24 heures)

TLE

FraisSource: CelesTrak SupGP

Époque: Sep 14, 2026, 20:53 UTC

1 50193C 21125AP  26257.87062500 -.00019746  00000+0 -63503-3 0  2574
2 50193  53.1566  99.0492 0001335  91.9141 337.8459 15.31708993    12

Suivez STARLINK-3261 en temps réel avec AllMySat

Download on the App Store